,,PA_Meas_PMT16A,,PR_Meas_QMR101_102,,RH_Meas_QMH101,,SR_Meas_QMS101,,TA_Meas_QMH101,,GenWind,,GenWind,
time,status,PA,status,PR,status,RH,status,SR,status,TA,status,DirAvg,status,SpdAvg,
2012-04-15, 00:00:04,VALID,916.551,VALID,0,VALID,96.1846,VALID,0,VALID,19.5273,VALID,136,VALID,0.8375,
2012-04-15, 00:01:04,VALID,916.513,VALID,0,VALID,96.1694,VALID,0,VALID,19.5258,VALID,136,VALID,0.876172,
2012-04-15, 00:02:04,VALID,916.501,VALID,0,VALID,96.1313,VALID,0,VALID,19.5858,VALID,136,VALID,0.869141,
2012-04-15, 00:03:04,VALID,916.528,VALID,0,VALID,96.1313,VALID,0,VALID,19.6053,VALID,136,VALID,0.950391,
2012-04-15, 00:04:04,VALID,916.516,VALID,0,VALID,96.0322,VALID,0,VALID,19.5843,VALID,136,VALID,1.02852,
2012-04-15, 00:05:04,VALID,916.515,VALID,0,VALID,95.9407,VALID,0,VALID,19.5438,VALID,136,VALID,0.905469,
2012-04-15, 00:06:04,VALID,916.48,VALID,0,VALID,95.8416,VALID,0,VALID,19.5453,VALID,136,VALID,0.952344,
2012-04-15, 00:07:04,VALID,916.492,VALID,0,VALID,95.8187,VALID,0,VALID,19.5063,VALID,136,VALID,0.841797,
2012-04-15, 00:08:04,VALID,916.487,VALID,0,VALID,95.7958,VALID,0,VALID,19.4478,VALID,136,VALID,0.891406,
2012-04-15, 00:09:04,VALID,916.463,VALID,0,VALID,95.773,VALID,0,VALID,19.4283,VALID,136,VALID,0.796484,
2012-04-15, 00:10:04,VALID,916.464,VALID,0,VALID,95.8187,VALID,0,VALID,19.3698,VALID,136,VALID,0.721484,
2012-04-15, 00:11:04,VALID,916.435,VALID,0,VALID,95.9178,VALID,0,VALID,19.3503,VALID,136,VALID,0.947266,
2012-04-15, 00:12:04,VALID,916.434,VALID,0,VALID,96.0093,VALID,0,VALID,19.3113,VALID,136,VALID,0.721875,
2012-04-15, 00:13:04,VALID,916.443,VALID,0,VALID,95.9941,VALID,0,VALID,19.2723,VALID,136,VALID,0.841016,
2012-04-15, 00:14:04,VALID,916.408,VALID,0,VALID,96.0245,VALID,0,VALID,19.2334,VALID,136,VALID,0.862891,
2012-04-15, 00:15:04,VALID,916.404,VALID,0,VALID,96.1541,VALID,0,VALID,19.2139,VALID,136,VALID,0.75625,
2012-04-15, 00:16:04,VALID,916.411,VALID,0,VALID,96.2456,VALID,0,VALID,19.2139,VALID,136,VALID,0.550781,
2012-04-15, 00:17:04,VALID,916.375,VALID,0,VALID,96.3524,VALID,0,VALID,19.2334,VALID,136,VALID,0.671875,
2012-04-15, 00:18:04,VALID,916.377,VALID,0,VALID,96.4133,VALID,0.107441,VALID,19.2334,VALID,136,VALID,0.720703,
2012-04-15, 00:19:04,VALID,916.361,VALID,0,VALID,96.5353,VALID,0,VALID,19.2948,VALID,136,VALID,0.645312,
2012-04-15, 00:20:04,VALID,916.372,VALID,0,VALID,96.5734,VALID,0,VALID,19.2723,VALID,136,VALID,0.866406,
2012-04-15, 00:21:04,VALID,916.373,VALID,0,VALID,96.5811,VALID,0,VALID,19.2918,VALID,136,VALID,0.676562,
2012-04-15, 00:22:04,VALID,916.348,VALID,0,VALID,96.6039,VALID,0,VALID,19.3128,VALID,136,VALID,0.617188,
2012-04-15, 00:23:04,VALID,916.376,VALID,0,VALID,96.5963,VALID,0,VALID,19.3128,VALID,136,VALID,0.501953,
2012-04-15, 00:24:04,VALID,916.366,VALID,0,VALID,96.6802,VALID,0,VALID,19.3308,VALID,136,VALID,0.43125,
2012-04-15, 00:25:04,VALID,916.371,VALID,0,VALID,96.4972,VALID,0,VALID,19.2918,VALID,136,VALID,0.167187,
2012-04-15, 00:26:04,VALID,916.363,VALID,0,VALID,96.5201,VALID,0,VALID,19.2723,VALID,136,VALID,0,
2012-04-15, 00:27:04,VALID,916.365,VALID,0,VALID,96.3752,VALID,0,VALID,19.2528,VALID,136,VALID,0,
2012-04-15, 00:28:04,VALID,916.374,VALID,0,VALID,95.9864,VALID,0,VALID,19.0969,VALID,136,VALID,0.516016,
2012-04-15, 00:29:04,VALID,916.368,VALID,0,VALID,96.1846,VALID,0.107441,VALID,19.0579,VALID,136,VALID,0.325391,
2012-04-15, 00:30:04,VALID,916.346,VALID,0,VALID,96.3829,VALID,0,VALID,19.1164,VALID,136,VALID,0,
2012-04-15, 00:31:04,VALID,916.334,VALID,0,VALID,96.5734,VALID,0,VALID,19.1749,VALID,136,VALID,0,
2012-04-15, 00:32:04,VALID,916.33,VALID,0,VALID,96.6573,VALID,0,VALID,19.2139,VALID,136,VALID,0,
2012-04-15, 00:33:04,VALID,916.333,VALID,0,VALID,96.6878,VALID,0,VALID,19.2543,VALID,136,VALID,0,
2012-04-15, 00:34:04,VALID,916.333,VALID,0,VALID,96.6115,VALID,0,VALID,19.1944,VALID,136,VALID,0,
2012-04-15, 00:35:04,VALID,916.356,VALID,0,VALID,96.3142,VALID,0,VALID,19.1344,VALID,136,VALID,0.29375,
2012-04-15, 00:36:04,VALID,916.324,VALID,0,VALID,96.6268,VALID,0,VALID,19.1944,VALID,136,VALID,0.494922,
2012-04-15, 00:37:04,VALID,916.321,VALID,0,VALID,96.7564,VALID,0,VALID,19.2334,VALID,136,VALID,0.488672,
2012-04-15, 00:38:04,VALID,916.34,VALID,0,VALID,96.8021,VALID,0,VALID,19.2723,VALID,136,VALID,0.357031,
2012-04-15, 00:39:04,VALID,916.336,VALID,0,VALID,96.7564,VALID,0,VALID,19.2723,VALID,136,VALID,0.305078,
2012-04-15, 00:40:04,VALID,916.332,VALID,0,VALID,96.6497,VALID,0,VALID,19.2334,VALID,136,VALID,0.505469,
2012-04-15, 00:41:04,VALID,916.312,VALID,0,VALID,96.6497,VALID,0,VALID,19.1958,VALID,136,VALID,0.378906,
2012-04-15, 00:42:04,VALID,916.347,VALID,0,VALID,96.7793,VALID,0,VALID,19.2139,VALID,136,VALID,0.370703,
2012-04-15, 00:43:04,VALID,916.329,VALID,0,VALID,96.7869,VALID,0,VALID,19.1944,VALID,136,VALID,0,
2012-04-15, 00:44:04,VALID,916.33,VALID,0,VALID,96.8174,VALID,0.107441,VALID,19.2139,VALID,136,VALID,0,
2012-04-15, 00:45:04,VALID,916.295,VALID,0,VALID,96.7945,VALID,0,VALID,19.2334,VALID,136,VALID,0,
2012-04-15, 00:46:04,VALID,916.292,VALID,0,VALID,96.703,VALID,0,VALID,19.1749,VALID,136,VALID,0.402734,
2012-04-15, 00:47:04,VALID,916.258,VALID,0,VALID,96.7107,VALID,0,VALID,19.1749,VALID,136,VALID,0.457031,
2012-04-15, 00:48:04,VALID,916.249,VALID,0,VALID,96.7107,VALID,0,VALID,19.1359,VALID,136,VALID,0.298828,
2012-04-15, 00:49:04,VALID,916.213,VALID,0,VALID,96.8326,VALID,0,VALID,19.2139,VALID,136,VALID,0.279687,
2012-04-15, 00:50:04,VALID,916.209,VALID,0,VALID,96.8707,VALID,0,VALID,19.2543,VALID,136,VALID,0.357422,
2012-04-15, 00:51:04,VALID,916.253,VALID,0,VALID,96.9012,VALID,0,VALID,19.2723,VALID,136,VALID,0.339063,
2012-04-15, 00:52:04,VALID,916.22,VALID,0,VALID,96.9089,VALID,0,VALID,19.2933,VALID,136,VALID,0.322266,
2012-04-15, 00:53:04,VALID,916.192,VALID,0,VALID,96.9317,VALID,0,VALID,19.2723,VALID,136,VALID,0.399609,
2012-04-15, 00:54:04,VALID,916.221,VALID,0,VALID,96.9622,VALID,0,VALID,19.2918,VALID,136,VALID,0.0339844,
2012-04-15, 00:55:04,VALID,916.236,VALID,0,VALID,97.0003,VALID,0,VALID,19.3323,VALID,136,VALID,0.166797,
2012-04-15, 00:56:04,VALID,916.237,VALID,0,VALID,97.0385,VALID,0,VALID,19.3308,VALID,136,VALID,0,
2012-04-15, 00:57:04,VALID,916.218,VALID,0,VALID,97.0537,VALID,0,VALID,19.3503,VALID,136,VALID,0,
2012-04-15, 00:58:04,VALID,916.208,VALID,0,VALID,97.0461,VALID,0,VALID,19.3698,VALID,136,VALID,0,
2012-04-15, 00:59:04,VALID,916.195,VALID,0,VALID,97.0461,VALID,0,VALID,19.3503,VALID,136,VALID,0,
2012-04-15, 01:00:04,VALID,916.132,VALID,0,VALID,97.0842,VALID,0,VALID,19.3893,VALID,136,VALID,0,
2012-04-15, 01:01:04,VALID,916.116,VALID,0,VALID,97.1376,VALID,0,VALID,19.4088,VALID,136,VALID,0,
2012-04-15, 01:02:04,VALID,916.111,VALID,0,VALID,97.1604,VALID,0.107441,VALID,19.4673,VALID,136,VALID,0,
2012-04-15, 01:03:04,VALID,916.108,VALID,0,VALID,97.1299,VALID,0,VALID,19.4868,VALID,136,VALID,0,
2012-04-15, 01:04:04,VALID,916.017,VALID,0,VALID,97.0461,VALID,0.107441,VALID,19.4088,VALID,136,VALID,0,
2012-04-15, 01:05:04,VALID,916.015,VALID,0,VALID,96.9927,VALID,0,VALID,19.3698,VALID,136,VALID,0,
2012-04-15, 01:06:04,VALID,915.981,VALID,0,VALID,96.9775,VALID,0,VALID,19.3503,VALID,136,VALID,0,
2012-04-15, 01:07:04,VALID,915.958,VALID,0,VALID,97.0385,VALID,0,VALID,19.3503,VALID,136,VALID,0,
2012-04-15, 01:08:04,VALID,915.957,VALID,0,VALID,97.0918,VALID,0,VALID,19.3698,VALID,136,VALID,0,
2012-04-15, 01:09:04,VALID,915.94,VALID,0,VALID,97.069,VALID,0,VALID,19.3698,VALID,136,VALID,0,
2012-04-15, 01:10:04,VALID,915.917,VALID,0,VALID,97.0613,VALID,0,VALID,19.3698,VALID,136,VALID,0,
2012-04-15, 01:11:04,VALID,915.948,VALID,0,VALID,97.1071,VALID,0.107441,VALID,19.3698,VALID,136,VALID,0,
2012-04-15, 01:12:04,VALID,915.966,VALID,0,VALID,97.1071,VALID,0,VALID,19.3698,VALID,136,VALID,0,
2012-04-15, 01:13:04,VALID,915.942,VALID,0,VALID,97.1223,VALID,0,VALID,19.3893,VALID,136,VALID,0,
2012-04-15, 01:14:04,VALID,915.934,VALID,0,VALID,97.0613,VALID,0,VALID,19.3908,VALID,136,VALID,0,
2012-04-15, 01:15:04,VALID,915.937,VALID,0,VALID,96.947,VALID,0.107441,VALID,19.2918,VALID,136,VALID,0,
2012-04-15, 01:16:04,VALID,915.924,VALID,0,VALID,96.9546,VALID,0,VALID,19.2723,VALID,136,VALID,0,
2012-04-15, 01:17:04,VALID,915.913,VALID,0,VALID,96.9851,VALID,0,VALID,19.2723,VALID,136,VALID,0,
2012-04-15, 01:18:04,VALID,915.914,VALID,0,VALID,96.8098,VALID,0,VALID,19.2139,VALID,136,VALID,0,
2012-04-15, 01:19:04,VALID,915.897,VALID,0,VALID,96.8174,VALID,0.107441,VALID,19.1749,VALID,136,VALID,0,
2012-04-15, 01:20:04,VALID,915.888,VALID,0,VALID,96.8555,VALID,0,VALID,19.1554,VALID,136,VALID,0,
2012-04-15, 01:21:04,VALID,915.845,VALID,0,VALID,96.9394,VALID,0.107441,VALID,19.1554,VALID,136,VALID,0,
2012-04-15, 01:22:04,VALID,915.823,VALID,0,VALID,96.947,VALID,0,VALID,19.1554,VALID,137,VALID,0,
2012-04-15, 01:23:04,VALID,915.833,VALID,0,VALID,97.0003,VALID,0,VALID,19.1749,VALID,136,VALID,0,
2012-04-15, 01:24:04,VALID,915.811,VALID,0,VALID,97.0537,VALID,0,VALID,19.1749,VALID,136,VALID,0,
2012-04-15, 01:25:04,VALID,915.826,VALID,0,VALID,97.1071,VALID,0,VALID,19.2543,VALID,136,VALID,0,
2012-04-15, 01:26:04,VALID,915.816,VALID,0,VALID,97.1681,VALID,0,VALID,19.2918,VALID,136,VALID,0,
2012-04-15, 01:27:04,VALID,915.808,VALID,0,VALID,97.1757,VALID,0,VALID,19.3113,VALID,136,VALID,0,
2012-04-15, 01:28:04,VALID,915.79,VALID,0,VALID,97.1223,VALID,0,VALID,19.3113,VALID,136,VALID,0,
2012-04-15, 01:29:04,VALID,915.772,VALID,0,VALID,97.1071,VALID,0,VALID,19.2918,VALID,136,VALID,0,
2012-04-15, 01:30:04,VALID,915.748,VALID,0,VALID,97.0994,VALID,0,VALID,19.3113,VALID,136,VALID,0,
2012-04-15, 01:31:04,VALID,915.711,VALID,0,VALID,97.0537,VALID,0,VALID,19.2918,VALID,136,VALID,0.0257812,
2012-04-15, 01:32:04,VALID,915.728,VALID,0,VALID,97.0385,VALID,0,VALID,19.2918,VALID,136,VALID,0.246094,
2012-04-15, 01:33:04,VALID,915.699,VALID,0,VALID,97.0308,VALID,0,VALID,19.2918,VALID,136,VALID,0.183984,
2012-04-15, 01:34:04,VALID,915.701,VALID,0,VALID,97.0003,VALID,0,VALID,19.2528,VALID,136,VALID,0,
2012-04-15, 01:35:04,VALID,915.702,VALID,0,VALID,96.9851,VALID,0,VALID,19.2334,VALID,136,VALID,0,
2012-04-15, 01:36:04,VALID,915.684,VALID,0,VALID,97.0537,VALID,0,VALID,19.2528,VALID,136,VALID,0,
2012-04-15, 01:37:04,VALID,915.638,VALID,0,VALID,97.0613,VALID,0,VALID,19.2723,VALID,136,VALID,0,
2012-04-15, 01:38:04,VALID,915.68,VALID,0,VALID,97.0308,VALID,0,VALID,19.2543,VALID,136,VALID,0.117578,
2012-04-15, 01:39:04,VALID,915.647,VALID,0,VALID,97.0613,VALID,0,VALID,19.2528,VALID,136,VALID,0.665234,
2012-04-15, 01:40:04,VALID,915.644,VALID,0,VALID,97.0613,VALID,0,VALID,19.2528,VALID,136,VALID,0.562891,
2012-04-15, 01:41:04,VALID,915.647,VALID,0,VALID,97.0308,VALID,0,VALID,19.2139,VALID,136,VALID,0.635547,
2012-04-15, 01:42:04,VALID,915.647,VALID,0,VALID,97.0308,VALID,0,VALID,19.2139,VALID,136,VALID,0.766797,
2012-04-15, 01:43:04,VALID,915.646,VALID,0,VALID,97.0461,VALID,0,VALID,19.1749,VALID,136,VALID,0.691406,
2012-04-15, 01:44:04,VALID,915.628,VALID,0,VALID,97.0232,VALID,0,VALID,19.1359,VALID,136,VALID,0.757422,
2012-04-15, 01:45:04,VALID,915.631,VALID,0,VALID,97.008,VALID,0,VALID,19.1373,VALID,136,VALID,0.557422,
2012-04-15, 01:46:04,VALID,915.619,VALID,0,VALID,97.0003,VALID,0,VALID,19.0579,VALID,136,VALID,0.452734,
2012-04-15, 01:47:04,VALID,915.626,VALID,0,VALID,97.0003,VALID,0,VALID,19.0384,VALID,136,VALID,0,
2012-04-15, 01:48:04,VALID,915.578,VALID,0,VALID,96.947,VALID,0,VALID,19.0189,VALID,136,VALID,0,
2012-04-15, 01:49:04,VALID,915.602,VALID,0,VALID,96.886,VALID,0,VALID,18.9409,VALID,136,VALID,0,
2012-04-15, 01:50:04,VALID,915.555,VALID,0,VALID,96.8707,VALID,0,VALID,18.9424,VALID,136,VALID,0,
2012-04-15, 01:51:04,VALID,915.576,VALID,0,VALID,97.0003,VALID,0,VALID,18.9019,VALID,136,VALID,0,
2012-04-15, 01:52:04,VALID,915.578,VALID,0,VALID,97.0461,VALID,0,VALID,18.8824,VALID,136,VALID,0,
2012-04-15, 01:53:04,VALID,915.562,VALID,0,VALID,97.1071,VALID,0,VALID,18.9019,VALID,136,VALID,0.202734,
2012-04-15, 01:54:04,VALID,915.565,VALID,0,VALID,97.0994,VALID,0,VALID,18.9019,VALID,136,VALID,0.128516,
2012-04-15, 01:55:04,VALID,915.564,VALID,0,VALID,97.1681,VALID,0,VALID,18.9214,VALID,136,VALID,0,
2012-04-15, 01:56:04,VALID,915.541,VALID,0,VALID,97.2519,VALID,0,VALID,18.9814,VALID,136,VALID,0,
2012-04-15, 01:57:04,VALID,915.559,VALID,0,VALID,97.2824,VALID,0,VALID,19.0189,VALID,136,VALID,0,
2012-04-15, 01:58:04,VALID,915.579,VALID,0,VALID,97.2519,VALID,0,VALID,19.0384,VALID,136,VALID,0,
2012-04-15, 01:59:04,VALID,915.562,VALID,0,VALID,97.2595,VALID,0,VALID,19.1568,VALID,136,VALID,0.0046875,
2012-04-15, 02:00:04,VALID,915.564,VALID,0,VALID,97.2443,VALID,0,VALID,19.0384,VALID,136,VALID,0.602344,
2012-04-15, 02:01:04,VALID,915.595,VALID,0,VALID,97.1071,VALID,0,VALID,18.9604,VALID,136,VALID,0.792969,
2012-04-15, 02:02:04,VALID,915.553,VALID,0,VALID,97.1528,VALID,0,VALID,18.9604,VALID,136,VALID,0.538672,
2012-04-15, 02:03:04,VALID,915.56,VALID,0,VALID,97.1604,VALID,0,VALID,18.9619,VALID,136,VALID,0.255469,
2012-04-15, 02:04:04,VALID,915.59,VALID,0,VALID,97.2214,VALID,0,VALID,18.9994,VALID,136,VALID,0,
2012-04-15, 02:05:04,VALID,915.57,VALID,0,VALID,97.1986,VALID,0,VALID,18.9799,VALID,136,VALID,0,
2012-04-15, 02:06:04,VALID,915.621,VALID,0,VALID,97.1452,VALID,0,VALID,18.9619,VALID,136,VALID,0.228125,
2012-04-15, 02:07:04,VALID,915.606,VALID,0,VALID,97.2748,VALID,0,VALID,19.0398,VALID,136,VALID,0.330078,
2012-04-15, 02:08:04,VALID,915.625,VALID,0,VALID,97.2748,VALID,0,VALID,19.0384,VALID,136,VALID,0.302734,
2012-04-15, 02:09:04,VALID,915.634,VALID,0,VALID,97.1986,VALID,0,VALID,19.0189,VALID,136,VALID,0.00195313,
2012-04-15, 02:10:04,VALID,915.64,VALID,0,VALID,97.1604,VALID,0,VALID,18.9799,VALID,136,VALID,0,
2012-04-15, 02:11:04,VALID,915.589,VALID,0,VALID,97.2214,VALID,0,VALID,19.0008,VALID,136,VALID,0,
2012-04-15, 02:12:04,VALID,915.599,VALID,0,VALID,97.1757,VALID,0,VALID,19.0008,VALID,136,VALID,0.234375,
2012-04-15, 02:13:04,VALID,915.591,VALID,0,VALID,96.9775,VALID,0,VALID,18.9214,VALID,136,VALID,0.232422,
2012-04-15, 02:14:04,VALID,915.583,VALID,0,VALID,97.0308,VALID,0,VALID,18.8824,VALID,136,VALID,0.350781,
2012-04-15, 02:15:04,VALID,915.582,VALID,0,VALID,97.1833,VALID,0,VALID,18.9409,VALID,136,VALID,0.385547,
2012-04-15, 02:16:04,VALID,915.592,VALID,0,VALID,97.29,VALID,0,VALID,19.0384,VALID,136,VALID,0.305469,
2012-04-15, 02:17:04,VALID,915.575,VALID,0,VALID,97.2748,VALID,0,VALID,19.0774,VALID,136,VALID,0.133984,
2012-04-15, 02:18:04,VALID,915.6,VALID,0,VALID,97.2824,VALID,0,VALID,19.0969,VALID,136,VALID,0.172656,
2012-04-15, 02:19:04,VALID,915.573,VALID,0,VALID,97.2824,VALID,0,VALID,19.0788,VALID,136,VALID,0,
2012-04-15, 02:20:04,VALID,915.569,VALID,0,VALID,97.2595,VALID,0,VALID,19.1178,VALID,136,VALID,0,
2012-04-15, 02:21:04,VALID,915.572,VALID,0,VALID,97.2748,VALID,0,VALID,19.1164,VALID,136,VALID,0,
2012-04-15, 02:22:04,VALID,915.585,VALID,0,VALID,97.2672,VALID,0,VALID,19.1373,VALID,136,VALID,0,
2012-04-15, 02:23:04,VALID,915.551,VALID,0,VALID,97.1986,VALID,0,VALID,19.0774,VALID,136,VALID,0,
2012-04-15, 02:24:04,VALID,915.533,VALID,0,VALID,97.1833,VALID,0,VALID,19.0579,VALID,136,VALID,0,
2012-04-15, 02:25:04,VALID,915.522,VALID,0,VALID,97.1528,VALID,0,VALID,19.0579,VALID,136,VALID,0.0988281,
2012-04-15, 02:26:04,VALID,915.518,VALID,0,VALID,97.1528,VALID,0,VALID,19.0579,VALID,136,VALID,0.0546875,
2012-04-15, 02:27:04,VALID,915.505,VALID,0,VALID,97.1757,VALID,0,VALID,19.0579,VALID,136,VALID,0,
2012-04-15, 02:28:04,VALID,915.489,VALID,0,VALID,97.1604,VALID,0,VALID,19.0579,VALID,136,VALID,0,
2012-04-15, 02:29:04,VALID,915.488,VALID,0,VALID,97.1147,VALID,0,VALID,19.0189,VALID,136,VALID,0,
2012-04-15, 02:30:04,VALID,915.442,VALID,0,VALID,97.0994,VALID,0.107441,VALID,19.0189,VALID,136,VALID,0,
2012-04-15, 02:31:04,VALID,915.465,VALID,0,VALID,97.1528,VALID,0,VALID,19.0593,VALID,136,VALID,0,
2012-04-15, 02:32:04,VALID,915.444,VALID,0,VALID,97.1604,VALID,0,VALID,19.0579,VALID,136,VALID,0.139844,
2012-04-15, 02:33:04,VALID,915.462,VALID,0,VALID,97.1528,VALID,0,VALID,19.0384,VALID,136,VALID,0.4125,
2012-04-15, 02:34:04,VALID,915.45,VALID,0,VALID,97.1452,VALID,0,VALID,19.0384,VALID,136,VALID,0.542578,
2012-04-15, 02:35:04,VALID,915.462,VALID,0,VALID,97.1223,VALID,0,VALID,19.0189,VALID,136,VALID,0.343359,
2012-04-15, 02:36:04,VALID,915.465,VALID,0,VALID,97.1604,VALID,0.107441,VALID,19.0384,VALID,136,VALID,0,
2012-04-15, 02:37:04,VALID,915.443,VALID,0,VALID,97.229,VALID,0,VALID,19.0969,VALID,136,VALID,0,
2012-04-15, 02:38:04,VALID,915.435,VALID,0,VALID,97.1604,VALID,0,VALID,19.0774,VALID,136,VALID,0,
2012-04-15, 02:39:04,VALID,915.443,VALID,0,VALID,97.1071,VALID,0,VALID,19.0384,VALID,136,VALID,0,
2012-04-15, 02:40:04,VALID,915.436,VALID,0,VALID,97.0003,VALID,0,VALID,19.0189,VALID,136,VALID,0,
2012-04-15, 02:41:04,VALID,915.431,VALID,0,VALID,96.9698,VALID,0,VALID,18.9799,VALID,136,VALID,0,
2012-04-15, 02:42:04,VALID,915.442,VALID,0,VALID,97.0003,VALID,0,VALID,18.9604,VALID,136,VALID,0,
2012-04-15, 02:43:04,VALID,915.474,VALID,0,VALID,97.0308,VALID,0,VALID,18.9604,VALID,136,VALID,0,
2012-04-15, 02:44:04,VALID,915.446,VALID,0,VALID,97.0994,VALID,0,VALID,18.9799,VALID,136,VALID,0,
2012-04-15, 02:45:04,VALID,915.47,VALID,0,VALID,97.1071,VALID,0,VALID,18.9994,VALID,136,VALID,0,
2012-04-15, 02:46:04,VALID,915.458,VALID,0,VALID,97.1071,VALID,0,VALID,18.9994,VALID,136,VALID,0,
2012-04-15, 02:47:04,VALID,915.485,VALID,0,VALID,97.1452,VALID,0,VALID,18.9994,VALID,136,VALID,0,
2012-04-15, 02:48:04,VALID,915.447,VALID,0,VALID,97.1528,VALID,0,VALID,19.0384,VALID,136,VALID,0,
2012-04-15, 02:49:04,VALID,915.467,VALID,0,VALID,97.0613,VALID,0,VALID,19.0189,VALID,136,VALID,0,
2012-04-15, 02:50:04,VALID,915.498,VALID,0,VALID,97.0994,VALID,0.107441,VALID,19.0189,VALID,136,VALID,0,
2012-04-15, 02:51:04,VALID,915.486,VALID,0,VALID,97.1528,VALID,0,VALID,19.0579,VALID,136,VALID,0,
2012-04-15, 02:52:04,VALID,915.498,VALID,0,VALID,97.1223,VALID,0,VALID,19.0774,VALID,136,VALID,0,
2012-04-15, 02:53:04,VALID,915.477,VALID,0,VALID,97.0613,VALID,0,VALID,19.0983,VALID,136,VALID,0,
2012-04-15, 02:54:04,VALID,915.505,VALID,0,VALID,97.0156,VALID,0,VALID,19.0579,VALID,136,VALID,0,
2012-04-15, 02:55:04,VALID,915.508,VALID,0,VALID,97.008,VALID,0,VALID,19.0788,VALID,136,VALID,0,
2012-04-15, 02:56:04,VALID,915.503,VALID,0,VALID,97.1071,VALID,0,VALID,19.1178,VALID,136,VALID,0,
2012-04-15, 02:57:04,VALID,915.457,VALID,0,VALID,97.0842,VALID,0,VALID,19.1164,VALID,136,VALID,0,
2012-04-15, 02:58:04,VALID,915.5,VALID,0,VALID,96.9775,VALID,0,VALID,19.0774,VALID,136,VALID,0,
2012-04-15, 02:59:04,VALID,915.497,VALID,0,VALID,96.8555,VALID,0,VALID,18.9994,VALID,136,VALID,0,
2012-04-15, 03:00:04,VALID,915.462,VALID,0,VALID,96.7716,VALID,0,VALID,18.9409,VALID,136,VALID,0,
2012-04-15, 03:01:04,VALID,915.491,VALID,0,VALID,96.7869,VALID,0,VALID,18.9019,VALID,136,VALID,0,
2012-04-15, 03:02:04,VALID,915.505,VALID,0,VALID,96.8326,VALID,0,VALID,18.9214,VALID,136,VALID,0,
2012-04-15, 03:03:04,VALID,915.514,VALID,0,VALID,96.9165,VALID,0,VALID,18.9619,VALID,136,VALID,0,
2012-04-15, 03:04:04,VALID,915.535,VALID,0,VALID,96.9089,VALID,0,VALID,18.9619,VALID,136,VALID,0,
2012-04-15, 03:05:04,VALID,915.527,VALID,0,VALID,96.8098,VALID,0,VALID,18.9019,VALID,136,VALID,0,
2012-04-15, 03:06:04,VALID,915.555,VALID,0,VALID,96.8936,VALID,0,VALID,18.9019,VALID,136,VALID,0,
2012-04-15, 03:07:04,VALID,915.555,VALID,0,VALID,96.9927,VALID,0,VALID,18.9604,VALID,136,VALID,0,
2012-04-15, 03:08:04,VALID,915.525,VALID,0,VALID,96.764,VALID,0,VALID,18.9214,VALID,136,VALID,0,
2012-04-15, 03:09:04,VALID,915.504,VALID,0,VALID,96.6497,VALID,0,VALID,18.8045,VALID,136,VALID,0,
2012-04-15, 03:10:04,VALID,915.51,VALID,0,VALID,96.7335,VALID,0,VALID,18.785,VALID,136,VALID,0.608203,
2012-04-15, 03:11:04,VALID,915.509,VALID,0,VALID,97.2367,VALID,0,VALID,18.8824,VALID,136,VALID,0.642578,
2012-04-15, 03:12:04,VALID,915.491,VALID,0,VALID,97.2748,VALID,0,VALID,18.9799,VALID,136,VALID,0.523438,
2012-04-15, 03:13:04,VALID,915.5,VALID,0,VALID,97.2824,VALID,0,VALID,19.0384,VALID,136,VALID,0.444531,
2012-04-15, 03:14:04,VALID,915.478,VALID,0,VALID,97.1681,VALID,0,VALID,19.0593,VALID,136,VALID,0.521484,
2012-04-15, 03:15:04,VALID,915.49,VALID,0,VALID,97.1986,VALID,0,VALID,19.0579,VALID,136,VALID,0.415625,
2012-04-15, 03:16:04,VALID,915.45,VALID,0,VALID,97.2062,VALID,0,VALID,19.0579,VALID,136,VALID,0.263672,
2012-04-15, 03:17:04,VALID,915.48,VALID,0,VALID,97.2824,VALID,0,VALID,19.1178,VALID,136,VALID,0.408203,
2012-04-15, 03:18:04,VALID,915.426,VALID,0,VALID,97.2748,VALID,0,VALID,19.1554,VALID,136,VALID,0.528125,
2012-04-15, 03:19:04,VALID,915.439,VALID,0,VALID,97.2672,VALID,0,VALID,19.1749,VALID,136,VALID,0.255859,
2012-04-15, 03:20:04,VALID,915.423,VALID,0,VALID,97.2595,VALID,0,VALID,19.1958,VALID,136,VALID,0.0269531,
2012-04-15, 03:21:04,VALID,915.45,VALID,0,VALID,97.2367,VALID,0,VALID,19.1749,VALID,136,VALID,0,
2012-04-15, 03:22:04,VALID,915.477,VALID,0,VALID,97.1986,VALID,0,VALID,19.1749,VALID,136,VALID,0,
2012-04-15, 03:23:04,VALID,915.468,VALID,0,VALID,97.1833,VALID,0,VALID,19.1763,VALID,137,VALID,0,
2012-04-15, 03:24:04,VALID,915.456,VALID,0,VALID,97.1986,VALID,0,VALID,19.1554,VALID,136,VALID,0,
2012-04-15, 03:25:04,VALID,915.469,VALID,0,VALID,97.1909,VALID,0,VALID,19.1359,VALID,136,VALID,0,
2012-04-15, 03:26:04,VALID,915.43,VALID,0,VALID,97.2214,VALID,0,VALID,19.1763,VALID,136,VALID,0,
2012-04-15, 03:27:04,VALID,915.423,VALID,0,VALID,97.2214,VALID,0,VALID,19.1763,VALID,136,VALID,0,
2012-04-15, 03:28:04,VALID,915.417,VALID,0,VALID,97.1681,VALID,0,VALID,19.1568,VALID,136,VALID,0,
2012-04-15, 03:29:04,VALID,915.441,VALID,0,VALID,97.1223,VALID,0,VALID,19.1373,VALID,136,VALID,0,
2012-04-15, 03:30:04,VALID,915.408,VALID,0,VALID,97.069,VALID,0,VALID,19.0983,VALID,136,VALID,0.353125,
2012-04-15, 03:31:04,VALID,915.41,VALID,0,VALID,96.9775,VALID,0,VALID,19.0398,VALID,136,VALID,0.482422,
2012-04-15, 03:32:04,VALID,915.428,VALID,0,VALID,97.0003,VALID,0,VALID,18.9214,VALID,136,VALID,0.444141,
2012-04-15, 03:33:04,VALID,915.411,VALID,0,VALID,97.1147,VALID,0,VALID,18.9424,VALID,136,VALID,0.794531,
2012-04-15, 03:34:04,VALID,915.412,VALID,0,VALID,97.29,VALID,0,VALID,18.9785,VALID,136,VALID,0.679688,
2012-04-15, 03:35:04,VALID,915.417,VALID,0,VALID,97.1986,VALID,0,VALID,19.0008,VALID,136,VALID,0.366016,
2012-04-15, 03:36:04,VALID,915.425,VALID,0,VALID,97.1833,VALID,0,VALID,19.0008,VALID,136,VALID,0.0292969,
2012-04-15, 03:37:04,VALID,915.393,VALID,0,VALID,97.29,VALID,0,VALID,19.0398,VALID,137,VALID,0.564844,
2012-04-15, 03:38:04,VALID,915.407,VALID,0,VALID,96.9012,VALID,0,VALID,18.9424,VALID,137,VALID,0.303516,
2012-04-15, 03:39:04,VALID,915.41,VALID,0,VALID,97.2519,VALID,0,VALID,18.9994,VALID,136,VALID,0.595703,
2012-04-15, 03:40:04,VALID,915.399,VALID,0,VALID,96.9012,VALID,0,VALID,18.9424,VALID,137,VALID,0.0972656,
2012-04-15, 03:41:04,VALID,915.384,VALID,0,VALID,96.9927,VALID,0,VALID,18.9214,VALID,137,VALID,0,
2012-04-15, 03:42:04,VALID,915.388,VALID,0,VALID,97.0385,VALID,0,VALID,18.9229,VALID,137,VALID,0.0015625,
2012-04-15, 03:43:04,VALID,915.413,VALID,0,VALID,97.1986,VALID,0,VALID,18.9799,VALID,136,VALID,0.161328,
2012-04-15, 03:44:04,VALID,915.393,VALID,0,VALID,97.1986,VALID,0,VALID,19.0189,VALID,136,VALID,0.466797,
2012-04-15, 03:45:04,VALID,915.427,VALID,0,VALID,96.9775,VALID,0,VALID,18.9799,VALID,137,VALID,0.132813,
2012-04-15, 03:46:04,VALID,915.41,VALID,0,VALID,97.1757,VALID,0,VALID,18.9814,VALID,136,VALID,0.544141,
2012-04-15, 03:47:04,VALID,915.429,VALID,0,VALID,96.8631,VALID,0,VALID,18.8824,VALID,136,VALID,0.350391,
2012-04-15, 03:48:04,VALID,915.438,VALID,0,VALID,97.2443,VALID,0,VALID,18.9604,VALID,136,VALID,0.854688,
2012-04-15, 03:49:04,VALID,915.436,VALID,0,VALID,97.229,VALID,0,VALID,19.0398,VALID,136,VALID,0.910156,
2012-04-15, 03:50:04,VALID,915.442,VALID,0,VALID,97.2977,VALID,0,VALID,19.0774,VALID,136,VALID,0.60625,
2012-04-15, 03:51:04,VALID,915.453,VALID,0,VALID,97.2595,VALID,0,VALID,19.1164,VALID,136,VALID,0.199609,